OBJECT C

Satellite information

Favourite Embed

Satellite Type and Status

UNKNOWNIN ORBIT

Key statistics

Satellite OBJECT C at a glance.

Uptime

576

Days in orbit

Revolutions

≈ 15.2

Per day

Orbit

SSO

Sun Synchronous Orbit

Inclination

97.4

Latest

Satellite identification and parameters

Extended collection of information and parameters for OBJECT C.

Object identification

Identified? True

Debris? False

Object name: OBJECT C

International designator: 2024-094C

Object number (NORAD): 59807

Object ID (CCSDS): 59807

Country: PEOPLES REPUBLIC OF CHINA (PRC)

Current information (Y/N): Y

RCS size: LARGE

Orbital parameters

Period: 94.987 minutes

Inclination: 97.4157 deg

SMA: 6896.113 km

Apoapsis: 524.681 km

Periapsis: 511.276 km

RAAN: 60.5738 deg

Eccentricy: 0.00097192

Argument of periapsis: 109.7654 deg

Mean anomaly: 250.4627 deg

Mean motion: 15.15989528 rev/day

Mean motion (dot): 0.00006021 rev/day2

B* drag term: 0.00031663663 1/REarth

Two-line elements (TLE)

Creation date: Dec. 16, 2025, 2:19 a.m.

Reference frame: TEME

Reference center: EARTH

Epoch: Dec. 16, 2025, 12:01 a.m. UTC

TLE line 0: 0 OBJECT C

TLE line 1: 1 59807U 24094C 25350.00130714 .00006021 00000-0 31664-3 0 9991

TLE line 2: 2 59807 97.4157 60.5738 0009719 109.7654 250.4627 15.15989528 87397

Live tracking on map

Real-time ground track for satellite OBJECT C.

In-orbit conjunctions

There are no conjunctions computed for OBJECT C, at the moment. Check back to stay up to date, as we update our databases every day.

Go to all conjunctions

Associated space launch

Commercial optical Earth observation constellation of 4 satellites for 21AT (Twenty First Century Aerospace Technology Company Ltd).

OBJECT C was lifted into orbit during the mission ‘Long March 2D | Beijing 3C’, on board a Long March 2D space rocket.

The launch took place on May 20, 2024, 3:06 a.m. from Launch Complex 9.

For more information about the launch, click the button.

Launch to space Long March 2D | Beijing 3C
Long March 2D | Beijing 3C

Agency: N/A

Status: Launch Successful

Launch date: May 20, 2024, 3:06 a.m. UTC

Rocket: Long March 2D

Launch pad: Launch Complex 9

Location: Taiyuan Satellite Launch Center, People's Republic of China

...

Latest news about this satellite

News about space launch
China launches four high-resolution remote sensing satellites

China sent a new set of four Beijing-3 optical remote sensing satellites into orbit late Sunday.


Newsletter sign-up

Weekly statistics, charts and insights to help you stay on top of the space industry.